FW6151 Weather Reports


time (UTC)temp
F
wind
direction
speed
knots
gust
knots
rain 1hr
in
rain 24hr
in
rain mn
in
humidity
%
barometer
mb
20260502214528 61 234 0.0 0.0 0.00 0.00 0.00 73 1019.5
20260502214027 61 234 0.0 0.0 0.00 0.00 0.00 73 1019.5
20260502213528 61 234 0.0 0.0 0.00 0.00 0.00 73 1019.5
20260502213027 62 234 0.0 0.0 0.00 0.00 0.00 72 1019.5
20260502212527 62 234 0.0 0.0 0.00 0.00 0.00 71 1019.5
20260502212026 62 234 0.0 0.0 0.00 0.00 0.00 71 1019.5
20260502211533 62 234 0.0 0.0 0.00 0.00 0.00 72 1019.4
20260502211026 62 234 0.0 0.0 0.00 0.00 0.00 71 1019.4
20260502210526 63 234 0.0 0.0 0.00 0.00 0.00 70 1019.4
20260502210026 63 245 0.0 0.0 0.00 0.00 0.00 70 1019.4
20260502205626 63 245 0.0 0.0 0.00 0.00 0.00 70 1019.4
20260502205025 63 244 0.0 1.7 0.00 0.00 0.00 69 1019.4
20260502204536 64 355 0.0 1.7 0.00 0.00 0.00 68 1019.5
20260502204027 64 96 0.0 0.0 0.00 0.00 0.00 68 1019.5
20260502203527 64 88 0.0 0.0 0.00 0.00 0.00 66 1019.5
20260502203035 64 88 0.0 0.0 0.00 0.00 0.00 66 1019.4
20260502202524 65 88 0.0 0.0 0.00 0.00 0.00 65 1019.2
20260502202024 65 88 0.0 0.0 0.00 0.00 0.00 64 1019.1
20260502201525 65 91 0.0 0.0 0.00 0.00 0.00 63 1019.0
20260502201024 65 91 0.0 0.0 0.00 0.00 0.00 62 1019.1
20260502200524 66 91 0.0 0.0 0.00 0.00 0.00 62 1019.0
20260502200024 66 91 0.0 0.0 0.00 0.00 0.00 61 1018.9
20260502195626 66 91 0.0 0.0 0.00 0.00 0.00 60 1018.9
20260502195023 67 91 0.0 0.0 0.00 0.00 0.00 60 1018.8
20260502194528 67 90 0.0 0.0 0.00 0.00 0.00 59 1018.7
20260502194023 67 90 0.0 0.0 0.00 0.00 0.00 59 1018.8
20260502193523 67 90 0.0 0.0 0.00 0.00 0.00 59 1018.7
20260502193023 68 90 0.0 0.0 0.00 0.00 0.00 58 1018.7
20260502192522 68 90 0.0 0.0 0.00 0.00 0.00 58 1018.8
20260502192022 69 90 0.0 0.0 0.00 0.00 0.00 56 1018.7
20260502191523 69 55 0.0 0.0 0.00 0.00 0.00 56 1018.7
20260502191022 69 43 0.0 0.0 0.00 0.00 0.00 56 1018.7
20260502190522 70 43 0.0 0.0 0.00 0.00 0.00 56 1018.6
20260502190022 70 43 0.0 0.0 0.00 0.00 0.00 56 1018.7
20260502185521 70 43 0.0 0.0 0.00 0.00 0.00 56 1018.7
20260502185022 71 43 0.0 0.0 0.00 0.00 0.00 55 1018.6
20260502184525 72 43 0.0 0.0 0.00 0.00 0.00 54 1018.5
20260502184021 72 43 0.0 1.7 0.00 0.00 0.00 52 1018.4
20260502183521 73 44 0.0 1.7 0.00 0.00 0.00 51 1018.4
20260502183021 73 44 0.0 1.7 0.00 0.00 0.00 49 1018.3
20260502182523 74 44 0.0 1.7 0.00 0.00 0.00 48 1018.3
20260502182020 74 44 0.0 0.9 0.00 0.00 0.00 47 1018.3
20260502181520 74 44 0.0 1.7 0.00 0.00 0.00 47 1018.2
20260502181022 75 44 0.0 1.7 0.00 0.00 0.00 46 1018.2
20260502180521 75 40 0.0 4.3 0.00 0.00 0.00 46 1018.2
20260502164016 79 325 0.0 2.6 0.00 0.00 0.00 37 1018.1
20260502163516 79 319 0.0 1.7 0.00 0.00 0.00 37 1018.1
20260502163034 79 319 0.0 3.5 0.00 0.00 0.00 37 1018.2
20260502162518 79 319 0.9 3.5 0.00 0.00 0.00 36 1018.2
20260502162017 79 68 0.0 3.5 0.00 0.00 0.00 36 1018.3
20260502161524 79 68 1.7 3.5 0.00 0.00 0.00 37 1018.4
20260502161014 80 295 1.7 4.3 0.00 0.00 0.00 37 1018.5
20260502160513 79 60 0.0 3.5 0.00 0.00 0.00 38 1018.5
20260502152010 79 130 0.0 2.6 0.00 0.00 0.00 36 1018.9
20260502151509 80 109 0.0 4.3 0.00 0.00 0.00 36 1019.0
20260502151009 80 313 0.9 3.5 0.00 0.00 0.00 36 1019.0
20260502150509 80 9 0.0 4.3 0.00 0.00 0.00 36 1019.0
20260502130558 81 180 0.9 4.3 0.00 0.00 0.00 38 1020.9
20260502130105 81 180 0.9 3.5 0.00 0.00 0.00 38 1021.1
20260502123552 80 129 0.9 3.5 0.00 0.00 0.00 39 1021.2
20260502123111 80 41 0.9 2.6 0.00 0.00 0.00 40 1021.4
20260502122550 80 48 0.0 5.2 0.00 0.00 0.00 41 1021.5
20260502122052 79 327 0.0 5.2 0.00 0.00 0.00 41 1021.6
20260502121554 79 328 0.0 4.3 0.00 0.00 0.00 40 1021.7
20260502121047 79 37 0.0 5.2 0.00 0.00 0.00 41 1021.7
20260502120547 78 327 1.7 7.0 0.00 0.00 0.00 40 1021.9
20260502115545 80 178 0.9 3.5 0.00 0.00 0.00 42 1021.9
20260502115044 80 178 0.0 2.6 0.00 0.00 0.00 41 1022.0
20260502114543 79 178 0.0 2.6 0.00 0.00 0.00 42 1022.0
20260502114047 78 178 0.0 2.6 0.00 0.00 0.00 42 1022.2
20260502113543 77 178 0.0 2.6 0.00 0.00 0.00 43 1022.2
20260502113048 78 178 0.9 2.6 0.00 0.00 0.00 42 1022.3
20260502112540 79 178 0.9 2.6 0.00 0.00 0.00 41 1022.5
20260502112039 79 178 0.9 2.6 0.00 0.00 0.00 42 1022.6
20260502111543 77 178 0.9 3.5 0.00 0.00 0.00 44 1022.5
20260502111038 77 178 0.9 3.5 0.00 0.00 0.00 43 1022.7
20260502110537 77 178 0.9 3.5 0.00 0.00 0.00 43 1022.7
20260502110036 77 178 0.9 2.6 0.00 0.00 0.00 44 1022.9
20260502105535 76 178 0.0 2.6 0.00 0.00 0.00 44 1022.9
20260502105033 77 178 0.9 3.5 0.00 0.00 0.00 44 1023.0
20260502104535 76 178 0.9 3.5 0.00 0.00 0.00 45 1023.0
20260502104032 76 178 0.9 2.6 0.00 0.00 0.00 46 1023.1
20260502103531 76 178 0.0 3.5 0.00 0.00 0.00 46 1023.2
20260502103031 75 281 0.9 3.5 0.00 0.00 0.00 47 1023.2
20260502102530 76 165 0.0 1.7 0.00 0.00 0.00 46 1023.3
20260502102029 76 165 0.0 4.3 0.00 0.00 0.00 46 1023.5
20260502101529 75 165 0.0 4.3 0.00 0.00 0.00 46 1023.5
20260502101027 75 152 0.9 2.6 0.00 0.00 0.00 46 1023.6
20260502100526 74 165 0.0 2.6 0.00 0.00 0.00 47 1023.6
20260502091521 72 128 0.0 3.5 0.00 0.00 0.00 47 1024.3
20260502091016 71 69 0.9 3.5 0.00 0.00 0.00 48 1024.3
20260502090515 71 62 0.9 3.5 0.00 0.00 0.00 47 1024.4
20260502071045 58 319 1.7 5.2 0.00 0.00 0.00 60 1025.3
20260502070544 57 360 0.9 4.3 0.00 0.00 0.00 62 1025.4
20260502070059 56 317 1.7 3.5 0.00 0.00 0.00 63 1025.5
20260502065542 56 215 0.9 3.5 0.00 0.00 0.00 64 1025.5
20260502065039 55 227 0.9 4.3 0.00 0.00 0.00 65 1025.6
20260502064548 55 216 1.7 4.3 0.00 0.00 0.00 66 1025.5
20260502064038 54 256 0.9 2.6 0.00 0.00 0.00 67 1025.6
20260502063538 54 263 0.0 1.7 0.00 0.00 0.00 67 1025.6
20260502063037 53 236 0.0 2.6 0.00 0.00 0.00 68 1025.6
20260502062537 53 230 0.0 4.3 0.00 0.00 0.00 68 1025.5
20260502062037 52 313 1.7 3.5 0.00 0.00 0.00 69 1025.5
20260502061536 52 239 0.0 1.7 0.00 0.00 0.00 70 1025.5
20260502061037 51 239 0.0 2.6 0.00 0.00 0.00 70 1025.5
20260502060535 51 14 0.0 2.6 0.00 0.00 0.00 70 1025.5
20260502060034 51 264 0.0 4.3 0.00 0.00 0.00 70 1025.5
20260502055535 51 296 0.0 4.3 0.00 0.00 0.00 70 1025.5
20260502055033 50 298 0.0 2.6 0.00 0.00 0.00 70 1025.4
20260502054536 50 319 0.0 4.3 0.00 0.00 0.00 70 1025.5
20260502054032 50 265 0.0 4.3 0.00 0.00 0.00 70 1025.5
20260502053532 50 319 0.0 4.3 0.00 0.00 0.00 70 1025.5
20260502053034 50 333 2.6 5.2 0.00 0.00 0.00 70 1025.4
20260502052530 50 300 0.9 2.6 0.00 0.00 0.00 70 1025.5
20260502052030 50 273 0.0 2.6 0.00 0.00 0.00 70 1025.5
20260502051535 50 319 0.9 3.5 0.00 0.00 0.00 70 1025.4
20260502051029 50 325 0.9 3.5 0.00 0.00 0.00 70 1025.5
20260502050529 49 315 0.9 3.5 0.00 0.00 0.00 71 1025.5
20260502050030 49 305 0.0 3.5 0.00 0.00 0.00 71 1025.4
20260502045541 49 275 0.0 1.7 0.00 0.00 0.00 71 1025.3
20260502045027 49 240 0.0 2.6 0.00 0.00 0.00 70 1025.4
20260502044525 49 296 0.0 2.6 0.00 0.00 0.00 70 1025.3
20260502044025 49 355 0.9 1.7 0.00 0.00 0.00 70 1025.4
20260502043525 49 329 0.0 3.5 0.00 0.00 0.00 70 1025.4
20260502043030 49 329 0.9 3.5 0.00 0.00 0.00 70 1025.3
20260502042524 49 314 0.0 2.6 0.00 0.00 0.00 70 1025.3
20260502042024 49 313 0.9 2.6 0.00 0.00 0.00 69 1025.3
20260502041524 49 318 0.0 3.5 0.00 0.00 0.00 69 1025.3
20260502041023 49 311 0.9 4.3 0.00 0.00 0.00 69 1025.3
20260502040523 49 317 1.7 4.3 0.00 0.00 0.00 69 1025.3
20260502040023 49 307 1.7 4.3 0.00 0.00 0.00 70 1025.3
20260502035522 49 318 0.0 4.3 0.00 0.00 0.00 70 1025.3
20260502035021 49 318 0.9 4.3 0.00 0.00 0.00 70 1025.2
20260502034521 49 309 0.0 3.5 0.00 0.00 0.00 70 1025.3
20260502034022 49 319 0.9 2.6 0.00 0.00 0.00 70 1025.3
20260502033523 50 277 0.0 2.6 0.00 0.00 0.00 70 1025.3
20260502033023 50 315 0.0 4.3 0.00 0.00 0.00 70 1025.3
20260502032520 50 299 1.7 4.3 0.00 0.00 0.00 70 1025.3
20260502032021 49 19 0.0 3.5 0.00 0.00 0.00 70 1025.2
20260502031520 50 22 0.9 3.5 0.00 0.00 0.00 69 1025.2
20260502031022 50 286 0.0 3.5 0.00 0.00 0.00 70 1025.4
20260502030521 50 196 0.0 0.0 0.00 0.00 0.00 69 1025.3
20260502030020 50 196 0.0 0.0 0.00 0.00 0.00 69 1025.3
20260502025524 50 196 0.0 1.7 0.00 0.00 0.00 69 1025.4
20260502025019 50 196 0.0 1.7 0.00 0.00 0.00 69 1025.5
20260502024525 50 196 0.9 2.6 0.00 0.00 0.00 69 1025.6
20260502024018 50 262 0.9 3.5 0.00 0.00 0.00 69 1025.4
20260502023518 50 307 0.0 3.5 0.00 0.00 0.00 69 1025.2
20260502023019 50 360 0.0 2.6 0.00 0.00 0.00 69 1025.2
20260502022519 50 298 0.0 1.7 0.00 0.00 0.00 69 1025.1
20260502022020 50 298 0.0 2.6 0.00 0.00 0.00 70 1025.1
20260502021518 50 297 0.0 3.5 0.00 0.00 0.00 70 1025.2
20260502021017 50 313 0.9 3.5 0.00 0.00 0.00 70 1025.2
20260502020516 50 314 0.9 3.5 0.00 0.00 0.00 70 1025.2
20260502020015 50 212 0.0 1.7 0.00 0.00 0.00 70 1025.1
20260502015514 50 210 0.0 1.7 0.00 0.00 0.00 70 1025.1
20260502015016 50 209 0.0 1.7 0.00 0.00 0.00 70 1025.3
20260502014514 50 328 0.0 2.6 0.00 0.00 0.00 70 1025.3
20260502014015 50 328 0.0 4.3 0.00 0.00 0.00 70 1025.2
20260502013512 50 332 0.9 4.3 0.00 0.00 0.00 70 1025.3
20260502013013 50 323 0.0 1.7 0.00 0.00 0.00 70 1025.3
20260502012512 50 323 0.0 1.7 0.00 0.00 0.00 70 1025.3
20260502012013 50 313 0.0 0.9 0.00 0.00 0.00 70 1025.4
20260502011510 50 313 0.0 1.7 0.00 0.00 0.00 70 1025.4
20260502011009 51 313 0.0 1.7 0.00 0.00 0.00 70 1025.4
20260502010513 51 312 0.0 0.9 0.00 0.00 0.00 70 1025.4
20260502010019 51 312 0.0 4.3 0.00 0.00 0.00 70 1025.4
20260502005508 51 314 0.9 4.3 0.00 0.00 0.00 70 1025.4
20260502005012 51 312 0.9 3.5 0.00 0.00 0.00 70 1025.5
20260502004512 51 311 0.9 3.5 0.00 0.00 0.00 70 1025.5
20260502004015 51 309 0.9 3.5 0.00 0.00 0.00 70 1025.5
20260502003508 51 311 0.9 3.5 0.00 0.00 0.00 70 1025.4
20260502003006 51 313 0.0 3.5 0.00 0.00 0.00 70 1025.4
20260502002508 51 313 0.9 4.3 0.00 0.00 0.00 70 1025.5
20260502002005 51 318 1.7 4.3 0.00 0.00 0.00 70 1025.5
20260502001504 51 313 1.7 3.5 0.00 0.00 0.00 70 1025.6
20260502001005 51 322 0.0 2.6 0.00 0.00 0.00 70 1025.5
20260502000504 52 322 0.0 2.6 0.00 0.00 0.00 70 1025.5
20260502000003 52 322 0.0 2.6 0.00 0.00 0.00 70 1025.7
20260501235502 52 321 0.0 0.9 0.00 0.00 0.00 70 1025.7
20260501235001 52 321 0.0 1.7 0.00 0.00 0.00 69 1025.7
20260501234501 52 321 0.0 1.7 0.00 0.00 0.00 69 1025.7
20260501234002 52 321 0.0 5.2 0.00 0.00 0.00 69 1025.7
20260501233600 52 321 0.0 5.2 0.00 0.00 0.00 69 1025.6
20260501233103 52 313 1.7 5.2 0.00 0.00 0.00 69 1025.7
20260501232558 53 311 2.6 5.2 0.00 0.00 0.00 68 1025.7
20260501232100 53 311 0.0 1.7 0.00 0.00 0.00 68 1025.7
20260501231559 53 311 0.0 2.6 0.00 0.00 0.00 68 1025.7
20260501231056 53 311 0.0 2.6 0.00 0.00 0.00 68 1025.7
20260501230556 53 311 0.0 3.5 0.00 0.00 0.00 69 1025.7
20260501225555 54 306 0.9 2.6 0.00 0.00 0.00 68 1025.7
20260501225053 54 304 0.9 2.6 0.00 0.00 0.00 67 1025.7
20260501224553 54 304 0.0 3.5 0.00 0.00 0.00 67 1025.7
20260501224055 54 304 0.9 3.5 0.00 0.00 0.00 67 1025.8
20260501223551 54 304 0.0 1.7 0.00 0.00 0.00 67 1025.8
20260501223051 54 304 0.0 3.5 0.00 0.00 0.00 67 1025.7
20260501222555 54 304 0.0 3.5 0.00 0.00 0.00 67 1025.7
20260501222050 55 324 0.9 3.5 0.00 0.00 0.00 67 1025.6
20260501221555 54 324 0.0 3.5 0.00 0.00 0.00 67 1025.6
20260501221048 55 321 0.0 1.7 0.00 0.00 0.00 67 1025.5
20260501220547 55 322 0.0 3.5 0.00 0.00 0.00 67 1025.4
20260501220047 55 322 0.0 3.5 0.00 0.00 0.00 67 1025.5
20260501215547 55 321 0.9 3.5 0.00 0.00 0.00 67 1025.4
20260501215049 55 321 0.9 2.6 0.00 0.00 0.00 67 1025.4